This is the latest recevied weather packets stored in our database for station/object WX4SGA. If no packets are shown the sender has not sent any weather packets the latest 10 day(s).
| Time | Temp. | Humidity | Pressure | Rain* | Wind** | Luminosity | Snow |
|---|---|---|---|---|---|---|---|
| 1777721260 | 13.89° C | 99% | 1009.8 hPa | 6.6 mm | - | 2 W/m² | - |
| 1777720957 | 13.89° C | 99% | 1009.5 hPa | 3.05 mm | - | 2 W/m² | - |
| 1777720654 | 13.89° C | 99% | 1010.2 hPa | 1.27 mm | - | 1 W/m² | - |
| 1777720351 | 13.89° C | 99% | 1009.8 hPa | 0 mm | - | 1 W/m² | - |
| 1777720049 | 13.89° C | 99% | 1009.8 hPa | 1.78 mm | - | 1 W/m² | - |
| 1777719747 | 13.89° C | 99% | 1009.5 hPa | 3.56 mm | - | 1 W/m² | - |
| 1777719444 | 13.89° C | 99% | 1009.5 hPa | 3.05 mm | - | 1 W/m² | - |
| 1777719140 | 13.89° C | 99% | 1009.5 hPa | 3.05 mm | - | 1 W/m² | - |
| 1777718838 | 13.89° C | 99% | 1009.5 hPa | 4.83 mm | - | 0 W/m² | - |
| 1777718535 | 13.89° C | 99% | 1009.8 hPa | 3.05 mm | - | 0 W/m² | - |
| 1777718233 | 14.44° C | 99% | 1010.2 hPa | 4.83 mm | - | 0 W/m² | - |
| 1777717931 | 14.44° C | 99% | 1010.5 hPa | 6.1 mm | - | 0 W/m² | - |
| 1777717628 | 14.44° C | 99% | 1010.8 hPa | 15.49 mm | - | 0 W/m² | - |
| 1777717324 | 14.44° C | 99% | 1010.8 hPa | 19.3 mm | - | 0 W/m² | - |
| 1777717022 | 14.44° C | 99% | 1011.2 hPa | 6.6 mm | - | 0 W/m² | - |
| 1777716720 | 14.44° C | 99% | 1011.2 hPa | 12.7 mm | - | 0 W/m² | - |
| 1777716418 | 14.44° C | 99% | 1010.5 hPa | 13.21 mm | - | 0 W/m² | - |
| 1777716116 | 14.44° C | 99% | 1009.8 hPa | 9.65 mm | - | 0 W/m² | - |
| 1777715814 | 14.44° C | 99% | 1009.8 hPa | 10.92 mm | - | 0 W/m² | - |
| 1777715511 | 14.44° C | 99% | 1009.8 hPa | 20.32 mm | - | 0 W/m² | - |
| 1777715208 | 14.44° C | 99% | 1009.8 hPa | 21.08 mm | - | 0 W/m² | - |
| 1777714907 | 15° C | 99% | 1010.5 hPa | 14.48 mm | - | 0 W/m² | - |
| 1777714604 | 15° C | 99% | 1010.2 hPa | 9.65 mm | - | 0 W/m² | - |
| 1777714301 | 15° C | 99% | 1009.8 hPa | 4.83 mm | - | 0 W/m² | - |
| 1777713999 | 15° C | 99% | 1010.2 hPa | 7.87 mm | - | 0 W/m² | - |
* Rain latest hour (hover to see other rain measurements)
** Current wind speed in m/s (hover to see current wind gust speed)